Wind_Speed
12 9 8 7 5 4 4 5 10 13 10 11 16 6 9 4 5 6 19 18 17 18 18 19 19 20 21 20 20 20 19 18 17 17 16 17 16 14 13 13 12 13 12 12 13 11 11 11 15
7 8 5 0 6 4 3 11 12 8 8 30 21 21 17 6 20 24 24 20 18 18 19 19 19 19 19 18 17 15 14 12 13 13 13 12 11 12 12 10 10 10 11 10 11 10 11 13 17
12 4 5 2 4 10 12 18 18 20 30 26 13 20 9 12 24 25 24 26 16 17 17 18 17 17 17 15 14 13 12 11 10 11 10 7 7 6 9 7 5 7 8 8 8 10 10 14 19
5 3 6 4 12 12 17 17 26 24 27 23 19 12 17 20 17 29 28 27 19 15 14 16 16 15 14 12 12 11 11 10 10 9 7 3 3 2 4 4 3 4 3 5 4 7 9 12 19
9 8 3 7 18 12 21 21 30 21 21 27 33 19 16 22 27 27 25 26 20 15 14 16 16 14 13 12 11 11 11 10 8 7 4 3 1 1 2 2 0 1 2 3 5 5 8 10 15
5 7 4 7 9 16 16 14 31 26 29 27 33 25 14 25 27 26 25 21 13 14 16 16 15 14 13 12 11 11 10 10 7 6 5 2 1 2 1 0 1 1 3 4 6 7 7 10 13
1 4 10 11 9 11 13 26 29 28 31 18 27 17 23 27 23 24 26 22 12 16 16 15 15 14 12 12 11 10 9 8 6 4 3 2 2 2 1 1 1 1 3 5 6 8 8 11 13
16 3 13 10 8 7 10 18 41 36 18 33 35 8 20 31 27 30 29 19 12 12 12 12 12 12 11 10 9 9 8 7 5 5 6 7 6 3 4 3 5 1 3 5 6 8 10 10 13
31 1 8 11 9 11 23 21 30 32 36 36 14 34 30 28 28 34 30 24 12 9 12 14 12 11 11 8 6 7 6 6 6 7 9 8 3 3 3 2 3 1 4 5 7 8 11 10 14
10 5 10 7 15 14 18 17 23 21 27 25 34 29 28 26 30 33 31 24 12 10 13 14 12 11 11 11 10 7 7 6 8 7 6 3 2 3 5 4 1 1 5 5 6 8 10 12 13
8 5 11 20 26 20 21 20 20 18 18 35 38 37 31 27 26 21 20 16 16 9 11 13 9 8 4 9 7 6 6 4 3 6 9 6 7 6 3 3 2 3 4 4 5 7 9 13 12
7 13 13 16 25 20 14 22 12 22 22 40 40 35 33 29 30 23 27 19 17 15 14 11 14 12 9 6 4 2 4 1 2 3 6 3 0 2 6 8 5 4 4 5 8 9 11 10 8
2 12 9 16 13 14 24 14 16 23 39 38 37 33 32 28 29 25 28 24 20 21 18 18 19 18 13 10 8 5 4 2 2 3 3 4 2 4 6 8 6 6 8 4 7 11 11 9 12
26 21 14 14 8 14 18 16 19 27 38 38 36 33 31 30 29 28 29 29 18 18 21 19 13 18 17 16 13 6 4 3 0 1 4 3 4 3 3 4 6 5 8 7 5 7 7 9 12
37 14 13 11 12 3 17 10 12 26 32 32 31 30 27 26 24 23 28 26 18 18 23 18 10 11 17 19 17 14 11 8 2 1 2 3 4 1 2 2 4 7 6 8 5 7 4 4 13
24 13 7 11 13 5 9 4 15 28 28 28 27 26 24 24 21 22 26 23 17 22 19 17 9 7 13 14 17 14 7 11 6 8 4 3 1 2 4 4 8 7 3 5 2 1 2 4 8
6 6 14 17 9 8 4 9 18 29 29 26 26 25 25 23 22 22 22 21 19 21 21 16 17 8 12 16 13 7 7 6 8 6 6 4 2 6 4 5 7 3 3 1 4 2 6 4 5
8 5 5 5 7 9 15 6 17 28 29 27 28 25 23 21 23 22 20 20 22 20 20 17 19 14 8 9 12 7 5 8 11 5 4 7 3 7 5 8 8 3 8 14 7 1 5 5 5
14 12 5 12 17 8 23 4 16 25 24 22 28 26 23 21 22 19 20 21 22 24 21 20 19 19 14 13 12 12 9 10 10 11 6 5 6 5 4 6 7 3 6 6 1 8 7 11 13
20 19 14 12 6 7 11 13 10 18 24 31 29 30 26 23 27 22 20 26 25 26 19 24 21 21 16 12 13 14 9 11 6 9 1 4 4 3 3 7 5 3 4 5 5 7 7 8 11
14 17 15 10 9 3 11 2 9 3 1 25 31 36 32 28 32 29 24 31 27 26 22 28 25 22 18 13 15 13 9 8 7 6 4 3 2 3 3 1 2 4 3 3 2 11 6 7 7
8 17 19 26 6 5 10 3 6 5 7 5 24 33 34 34 32 34 31 33 32 30 25 21 28 26 22 18 17 17 18 14 6 5 6 3 1 1 4 1 2 8 5 3 2 11 8 5 4
9 28 30 15 3 2 3 6 5 4 7 13 20 33 36 39 37 39 36 34 33 33 28 22 22 22 21 23 21 18 10 15 12 5 4 10 2 2 3 5 1 7 9 5 3 7 11 10 6
6 7 7 3 3 1 10 9 3 8 2 12 15 22 32 41 39 38 39 35 37 36 31 26 21 18 19 22 24 20 17 12 9 10 5 4 6 5 5 5 3 6 10 6 8 10 11 14 9
4 5 4 5 4 6 9 7 9 19 25 25 23 26 28 39 41 36 37 42 36 38 35 30 26 20 19 22 26 24 19 15 14 8 12 8 7 9 5 3 3 6 9 7 6 6 9 14 12
7 6 5 6 5 4 4 5 5 16 16 28 23 24 32 25 37 38 32 39 39 38 36 31 29 24 20 20 22 24 23 16 14 15 14 12 11 10 11 7 6 3 5 8 8 7 5 9 10
10 5 11 3 5 5 4 3 5 8 5 9 11 17 23 22 37 38 30 34 39 38 37 32 28 25 21 19 19 22 21 24 18 15 11 15 10 4 9 5 7 6 7 8 7 6 7 7 8
9 8 4 4 3 5 1 6 6 9 7 12 18 29 32 26 38 40 34 32 40 36 35 31 25 22 19 17 20 21 19 18 20 14 12 11 12 12 13 13 10 6 9 10 9 7 7 8 7
1 7 2 3 5 6 2 5 7 16 16 19 23 47 54 43 38 39 40 36 40 36 35 32 26 21 20 18 19 20 19 17 18 19 16 15 15 10 12 12 11 10 12 11 10 10 12 12 11
8 10 8 5 10 4 5 5 7 19 16 24 28 25 35 23 25 3 39 41 42 41 34 30 24 21 18 17 18 14 13 9 15 19 22 19 20 21 18 17 17 16 16 16 16 15 15 17 15
Wind_Direction
95 95 86 90 74 27 80 100 123 129 156 152 130 141 126 64 114 128 140 137 127 120 123 122 121 126 128 130 129 127 125 121 118 111 104 102 103 109 108 102 98 90 88 91 86 80 85 94 118
109 78 22 58 111 136 181 148 137 149 138 127 101 90 70 68 102 134 138 131 123 123 125 125 127 129 130 131 136 141 142 137 127 117 114 103 100 108 105 100 98 95 97 86 80 79 90 99 121
87 89 271 162 111 113 120 112 98 113 115 132 115 88 80 113 119 131 133 119 116 125 125 126 128 130 132 134 136 143 142 149 144 136 129 119 97 98 108 116 111 97 101 103 98 91 93 109 122
147 201 244 137 116 116 121 128 114 113 104 102 99 74 97 111 123 132 133 127 156 134 134 133 132 135 134 140 145 150 153 153 154 153 150 149 103 77 99 117 125 119 92 108 114 105 108 119 134
306 253 255 83 90 114 84 128 125 121 103 95 111 116 105 131 118 123 127 137 147 151 146 141 137 139 142 147 144 148 157 159 165 167 166 160 110 81 78 91 207 210 167 172 156 140 123 128 146
297 321 98 100 88 100 124 137 127 120 113 110 113 117 127 133 129 129 134 132 119 148 153 148 143 148 148 145 145 150 154 153 161 166 169 203 284 29 352 6 329 215 133 156 177 162 133 134 141
160 328 104 91 90 94 133 141 126 122 123 123 126 121 145 153 136 140 140 147 153 150 151 147 149 149 149 151 151 156 157 151 162 176 164 144 91 75 54 40 77 157 129 137 170 164 152 136 142
297 260 97 97 95 77 100 108 127 128 135 135 130 149 149 163 146 149 148 149 125 128 137 144 151 148 150 150 148 154 148 138 142 132 124 115 92 108 100 88 48 213 163 142 157 156 153 146 147
267 107 112 127 126 98 87 98 114 129 135 148 167 148 147 131 144 148 145 145 139 141 123 130 134 128 131 124 122 129 133 136 137 132 139 116 133 148 156 198 340 104 205 165 154 155 156 149 149
215 95 124 123 115 111 111 118 134 146 153 130 129 143 152 147 145 140 144 146 158 159 163 140 127 117 121 107 98 103 101 111 134 125 139 170 195 231 236 214 297 250 192 186 163 159 158 150 147
80 95 92 112 115 132 148 157 153 144 138 146 142 149 158 158 157 166 172 179 177 159 168 179 163 141 114 108 101 116 90 138 107 128 150 164 117 16 21 148 247 217 175 193 171 151 157 159 144
106 90 99 96 132 151 156 149 161 157 143 145 146 152 163 168 172 176 177 168 170 165 188 201 177 164 161 149 212 84 89 156 226 145 178 198 264 103 114 93 112 99 112 204 165 150 156 166 167
27 114 97 114 123 138 114 109 99 127 133 142 148 155 167 173 178 179 184 181 184 184 175 173 171 176 180 188 196 219 140 203 252 222 180 176 175 87 113 122 132 110 117 140 184 167 178 192 207
9 126 150 145 165 93 112 113 113 125 136 142 150 164 173 182 186 189 184 179 166 167 189 194 208 212 208 191 176 159 174 212 274 358 9 357 20 45 130 134 146 153 137 116 114 163 182 201 214
30 30 315 139 88 28 118 111 121 133 138 145 155 170 179 188 192 183 178 172 160 176 189 202 207 207 208 189 180 179 200 190 131 301 326 346 340 8 208 140 79 148 131 122 92 115 180 208 208
63 352 343 337 107 327 89 136 134 142 144 151 164 178 183 190 189 173 174 171 172 176 193 199 218 197 172 170 159 176 192 184 179 231 238 222 224 131 186 154 133 154 168 141 115 99 222 198 202
132 199 236 278 213 158 165 154 148 152 155 162 173 183 186 194 186 172 180 180 177 183 188 189 200 195 167 154 162 185 201 170 198 210 246 304 150 142 189 133 141 156 261 193 151 155 338 343 276
166 172 265 303 231 128 14 192 155 163 164 171 177 183 185 189 181 173 179 184 180 188 186 182 206 217 179 155 169 189 152 187 193 273 154 122 139 183 164 127 142 106 102 158 183 228 319 13 65
79 94 350 251 245 118 161 221 162 169 168 171 177 176 180 183 178 175 182 188 183 184 181 176 192 202 182 183 187 171 184 192 202 228 191 160 160 143 128 155 151 152 173 141 86 110 98 79 95
118 120 185 256 210 107 129 234 226 175 177 174 178 175 180 187 179 175 187 186 186 187 193 178 198 194 191 198 175 183 214 223 233 272 235 154 117 131 157 156 160 201 192 114 179 171 126 114 109
152 166 213 216 192 142 130 86 297 224 128 183 182 180 180 185 177 177 181 187 191 195 203 190 197 204 208 212 173 206 211 196 211 210 214 153 128 74 103 158 162 207 212 119 138 183 178 165 166
202 165 264 236 154 195 147 206 241 247 260 224 199 177 181 183 183 181 185 191 196 202 208 195 200 210 217 191 193 216 226 226 220 260 246 206 282 80 185 271 235 216 190 144 157 177 168 170 188
256 163 205 217 358 77 209 86 286 39 290 265 204 184 184 187 187 188 188 195 207 205 204 201 200 212 211 198 199 214 230 224 203 236 165 193 234 284 210 231 226 204 212 192 191 192 197 199 189
300 339 336 317 166 261 258 123 217 166 113 274 236 187 190 186 188 195 199 192 202 207 203 201 203 214 215 205 202 211 220 203 194 221 219 210 235 281 229 204 246 227 220 231 236 230 232 218 209
340 341 336 334 347 227 118 97 210 201 199 199 222 211 200 192 189 192 197 195 196 202 203 203 204 212 218 215 204 214 219 203 214 198 183 211 261 251 254 204 245 231 228 234 241 225 215 219 217
269 202 167 237 243 260 107 142 265 220 213 221 237 209 209 192 186 192 197 199 192 199 201 204 206 210 218 221 217 213 220 216 219 222 212 214 252 255 246 218 224 224 225 239 249 243 242 224 221
263 281 235 250 303 25 153 226 359 214 218 250 279 249 236 206 184 190 193 200 191 196 199 207 208 212 219 226 226 219 216 222 223 228 230 217 241 234 230 256 240 243 248 260 249 238 234 230 212
173 238 355 343 256 284 324 172 200 220 186 178 226 237 233 220 185 191 189 193 190 195 199 206 208 212 219 228 225 222 219 221 225 214 212 219 236 247 252 255 276 249 256 264 262 248 237 243 249
193 270 271 175 158 194 174 251 200 191 201 180 223 233 223 225 187 186 186 188 188 189 196 198 204 209 221 231 221 218 223 221 219 212 221 212 219 227 242 266 275 259 255 260 268 260 249 247 248
194 208 196 129 278 245 168 249 178 192 210 169 210 173 168 149 74 167 186 184 181 183 190 197 203 213 221 229 221 214 218 232 238 228 223 227 230 228 232 242 254 260 263 265 263 259 255 255 260
Height
1492 1491 1494 1495 1511 1521 1521 1521 1512 1519 1521 1521 1522 1523 1524 1526 1530 1549 1549 1552 1553 1555 1557 1559 1561 1563 1565 1567 1568 1570 1571 1573 1574 1575 1577 1577 1578 1580 1580 1580 1581 1582 1581 1581 1582 1582 1583 1584 1586
1492 1492 1494 1496 1512 1533 1528 1514 1517 1513 1513 1521 1524 1524 1527 1537 1533 1541 1548 1553 1555 1556 1558 1560 1563 1565 1566 1568 1570 1572 1574 1576 1576 1578 1579 1580 1581 1581 1582 1584 1583 1584 1584 1583 1583 1583 1584 1585 1586
1494 1495 1497 1497 1503 1516 1519 1507 1510 1515 1517 1520 1522 1526 1534 1540 1541 1544 1549 1552 1556 1558 1560 1562 1565 1566 1568 1570 1571 1573 1575 1577 1578 1579 1581 1582 1583 1584 1584 1585 1586 1585 1586 1586 1584 1584 1585 1586 1587
1498 1497 1496 1501 1503 1497 1501 1504 1508 1514 1522 1523 1524 1531 1539 1544 1544 1546 1549 1552 1556 1559 1561 1563 1565 1567 1569 1571 1573 1574 1575 1577 1579 1580 1581 1583 1584 1585 1585 1586 1587 1587 1587 1588 1587 1586 1587 1588 1589
1503 1494 1494 1500 1500 1493 1506 1506 1509 1515 1522 1526 1528 1537 1540 1547 1547 1549 1551 1554 1557 1560 1563 1564 1566 1567 1569 1572 1573 1575 1577 1578 1580 1581 1583 1584 1586 1586 1586 1587 1588 1588 1588 1588 1588 1588 1588 1589 1591
1502 1499 1499 1510 1499 1494 1501 1506 1510 1515 1524 1530 1532 1538 1545 1547 1549 1551 1553 1554 1558 1561 1564 1565 1566 1568 1570 1572 1574 1576 1578 1579 1581 1583 1584 1585 1586 1586 1587 1587 1588 1588 1588 1588 1588 1590 1589 1590 1591
1509 1511 1500 1499 1501 1496 1498 1501 1509 1516 1526 1532 1534 1537 1546 1549 1550 1551 1554 1556 1561 1564 1565 1566 1567 1569 1571 1573 1575 1577 1579 1579 1581 1583 1583 1585 1586 1585 1586 1587 1588 1588 1588 1588 1588 1590 1590 1591 1592
1512 1505 1502 1499 1504 1506 1496 1499 1509 1515 1525 1532 1535 1541 1543 1548 1552 1555 1558 1559 1562 1565 1567 1568 1568 1569 1572 1575 1576 1578 1579 1580 1582 1582 1582 1583 1585 1584 1584 1587 1588 1588 1589 1589 1589 1590 1591 1591 1593
1515 1513 1511 1503 1502 1503 1501 1505 1511 1516 1523 1528 1532 1537 1544 1548 1553 1557 1560 1561 1563 1566 1568 1568 1569 1570 1573 1576 1577 1578 1579 1581 1581 1581 1582 1583 1583 1583 1583 1585 1586 1587 1588 1589 1589 1590 1591 1592 1593
1500 1503 1499 1490 1494 1501 1504 1507 1510 1515 1523 1531 1536 1544 1547 1551 1553 1556 1559 1560 1563 1565 1567 1568 1570 1570 1573 1575 1577 1579 1580 1581 1581 1580 1583 1581 1581 1580 1581 1583 1584 1586 1587 1589 1589 1590 1591 1593 1593
1491 1498 1489 1490 1494 1499 1503 1507 1508 1513 1522 1525 1532 1540 1547 1551 1554 1556 1559 1561 1563 1565 1566 1568 1570 1570 1572 1575 1578 1580 1580 1582 1581 1579 1581 1575 1579 1580 1582 1582 1584 1585 1587 1589 1590 1591 1592 1593 1593
1495 1493 1493 1493 1495 1497 1499 1506 1507 1511 1516 1524 1531 1540 1546 1550 1553 1554 1557 1558 1561 1565 1566 1566 1569 1570 1572 1575 1579 1580 1580 1581 1580 1581 1588 1586 1582 1580 1581 1582 1585 1585 1587 1589 1589 1591 1593 1593 1592
1495 1496 1498 1497 1495 1496 1499 1504 1508 1513 1519 1525 1533 1541 1546 1549 1551 1552 1554 1557 1560 1564 1566 1567 1570 1572 1573 1577 1579 1579 1581 1583 1582 1581 1587 1586 1582 1580 1582 1584 1586 1587 1589 1586 1588 1588 1590 1591 1592
1502 1495 1499 1499 1502 1500 1502 1506 1510 1518 1520 1527 1533 1541 1545 1547 1548 1551 1554 1556 1560 1562 1563 1567 1570 1571 1574 1577 1579 1580 1582 1584 1584 1583 1582 1583 1583 1584 1585 1587 1587 1588 1588 1589 1588 1587 1588 1590 1591
1510 1514 1508 1500 1504 1505 1504 1515 1517 1521 1525 1530 1535 1540 1543 1546 1548 1551 1552 1556 1559 1561 1563 1566 1569 1571 1574 1576 1578 1580 1582 1584 1586 1585 1585 1585 1586 1589 1589 1588 1588 1588 1588 1588 1589 1589 1588 1588 1589
1524 1535 1544 1511 1503 1508 1508 1529 1517 1521 1525 1531 1536 1540 1542 1544 1546 1550 1552 1555 1559 1562 1563 1566 1568 1570 1572 1575 1577 1579 1583 1586 1587 1587 1588 1585 1587 1587 1591 1590 1589 1589 1588 1587 1590 1590 1589 1588 1588
1533 1552 1546 1530 1504 1506 1509 1522 1516 1520 1524 1529 1534 1537 1541 1544 1546 1549 1552 1554 1557 1561 1564 1566 1566 1569 1572 1574 1577 1580 1582 1585 1585 1585 1585 1588 1589 1588 1591 1588 1588 1588 1588 1588 1590 1590 1589 1586 1585
1526 1540 1529 1532 1509 1506 1524 1517 1508 1516 1519 1523 1529 1534 1539 1542 1545 1548 1552 1554 1557 1559 1564 1567 1568 1569 1571 1574 1577 1580 1582 1582 1582 1582 1581 1589 1586 1587 1586 1585 1585 1587 1589 1591 1592 1590 1588 1587 1583
1505 1520 1531 1519 1500 1510 1512 1524 1506 1511 1519 1523 1525 1530 1535 1540 1545 1548 1551 1553 1556 1559 1563 1567 1568 1569 1571 1573 1575 1577 1579 1582 1583 1583 1583 1587 1589 1584 1585 1586 1586 1588 1590 1591 1591 1591 1589 1588 1587
1509 1521 1528 1503 1493 1494 1502 1514 1508 1508 1509 1512 1519 1524 1530 1537 1541 1546 1550 1551 1553 1556 1560 1564 1566 1567 1570 1572 1573 1576 1578 1579 1580 1581 1584 1588 1587 1583 1584 1585 1586 1588 1591 1589 1591 1591 1591 1591 1591
1503 1510 1511 1496 1480 1485 1503 1525 1532 1505 1510 1512 1510 1514 1521 1529 1536 1541 1546 1548 1550 1553 1556 1560 1563 1564 1567 1570 1571 1573 1575 1577 1580 1580 1583 1584 1585 1585 1585 1585 1585 1588 1589 1587 1589 1590 1590 1592 1593
1502 1497 1507 1504 1492 1513 1483 1548 1532 1512 1512 1511 1508 1512 1518 1523 1529 1535 1540 1543 1544 1548 1552 1556 1559 1563 1566 1568 1570 1571 1573 1575 1577 1578 1579 1581 1581 1581 1582 1582 1584 1585 1586 1586 1588 1588 1589 1591 1593
1479 1485 1490 1474 1485 1487 1489 1529 1522 1519 1518 1506 1505 1505 1510 1517 1522 1527 1531 1537 1539 1543 1547 1553 1556 1560 1564 1566 1568 1569 1571 1574 1576 1576 1576 1577 1578 1580 1580 1582 1583 1584 1584 1584 1585 1587 1589 1590 1590
1461 1467 1469 1471 1486 1522 1494 1511 1525 1521 1521 1510 1497 1499 1506 1510 1515 1519 1524 1530 1533 1538 1543 1548 1552 1555 1559 1563 1566 1567 1569 1573 1576 1576 1576 1576 1577 1578 1578 1578 1580 1581 1581 1583 1583 1585 1587 1588 1588
1464 1482 1524 1528 1529 1530 1494 1511 1510 1489 1476 1474 1484 1493 1498 1506 1508 1513 1519 1524 1530 1532 1537 1543 1549 1552 1555 1558 1561 1564 1567 1571 1574 1576 1577 1577 1577 1577 1577 1576 1578 1580 1581 1582 1582 1583 1585 1585 1585
1477 1484 1524 1534 1536 1519 1493 1524 1499 1472 1477 1479 1484 1485 1493 1502 1504 1509 1515 1519 1525 1528 1533 1538 1544 1549 1552 1555 1557 1560 1565 1569 1572 1574 1576 1576 1575 1576 1576 1576 1578 1579 1580 1581 1581 1581 1582 1583 1583
1480 1494 1473 1496 1490 1515 1506 1500 1479 1476 1480 1485 1486 1489 1494 1498 1501 1507 1512 1516 1522 1527 1530 1533 1539 1545 1549 1553 1555 1558 1562 1566 1569 1572 1574 1574 1574 1575 1576 1575 1577 1577 1578 1580 1579 1579 1578 1579 1579
1468 1465 1499 1501 1522 1531 1507 1503 1504 1481 1478 1483 1480 1488 1488 1491 1494 1500 1507 1511 1517 1525 1530 1533 1537 1540 1546 1550 1552 1556 1560 1563 1567 1570 1571 1573 1573 1574 1575 1576 1575 1574 1576 1577 1576 1575 1574 1575 1575
1473 1482 1478 1488 1499 1528 1532 1511 1463 1466 1464 1473 1488 1477 1476 1485 1489 1496 1503 1507 1510 1520 1526 1531 1535 1539 1543 1546 1551 1554 1557 1560 1563 1566 1569 1571 1572 1572 1572 1572 1572 1573 1574 1574 1572 1571 1570 1569 1569
1455 1469 1474 1511 1506 1496 1501 1494 1447 1450 1455 1466 1462 1467 1471 1483 1499 1508 1502 1504 1505 1513 1521 1527 1532 1535 1539 1543 1547 1552 1554 1557 1560 1562 1566 1569 1570 1571 1571 1570 1570 1570 1569 1568 1567 1566 1566 1567 1567